DW8266 Weather Reports


Display with metric or nautical units.
time (UTC)temp
F
wind
direction
speed
MPH
gust
MPH
rain 1hr
in
rain 24hr
in
rain mn
in
humidity
%
barometer
mb
20260505153100 77 213 3.0 9.0 0.00 0.00 0.00 90 1009.3
20260505153003 77 191 3.0 9.0 0.00 0.00 0.00 90 1009.3
20260505151621 77 213 5.0 11.0 0.00 0.00 0.00 91 1009.4
20260505124559 73 120 1.0 4.0 0.00 0.00 0.00 93 1009.2
20260505123059 72 135 0.0 3.0 0.00 0.00 0.00 94 1008.9
20260505121559 72 141 0.0 3.0 0.00 0.00 0.00 93 1008.8
20260505120124 72 158 1.0 3.0 0.00 0.00 0.00 93 1008.6
20260505114601 71 96 0.0 2.0 0.00 0.00 0.00 93 1008.5
20260505113058 71 153 0.0 2.0 0.00 0.00 0.00 93 1008.8
20260505111559 71 157 0.0 3.0 0.00 0.00 0.00 93 1008.4
20260505101600 71 173 1.0 5.0 0.00 0.00 0.00 93 1008.6
20260505100059 71 139 0.0 5.0 0.00 0.00 0.00 93 1008.8
20260505100002 71 139 1.0 5.0 0.00 0.00 0.00 93 1008.8
20260505094559 71 147 1.0 3.0 0.00 0.00 0.00 93 1008.8
20260505093101 71 101 0.0 5.0 0.00 0.00 0.00 92 1008.7
20260505091606 71 152 0.0 2.0 0.00 0.00 0.00 92 1008.8
20260505090003 71 152 1.0 3.0 0.00 0.00 0.00 92 1009.1
20260505084602 71 148 1.0 5.0 0.00 0.00 0.00 92 1009.1
20260505083059 71 139 1.0 3.0 0.00 0.00 0.00 92 1009.2
20260505081606 71 174 0.0 3.0 0.00 0.00 0.00 92 1009.3
20260505074601 71 173 0.0 5.0 0.00 0.00 0.00 91 1009.4
20260505073111 71 155 1.0 4.0 0.00 0.00 0.00 91 1009.4
20260505071601 71 145 1.0 5.0 0.00 0.00 0.00 90 1009.6
20260505070103 71 171 2.0 8.0 0.00 0.00 0.00 90 1009.9
20260505064558 71 150 1.0 5.0 0.00 0.00 0.00 90 1010.0
20260505063058 71 171 1.0 4.0 0.00 0.00 0.00 90 1010.1
20260505061559 71 202 2.0 7.0 0.00 0.00 0.00 89 1010.2
20260505060059 71 162 2.0 6.0 0.00 0.00 0.00 89 1010.4
20260505054627 72 176 2.0 6.0 0.00 0.00 0.00 89 1010.4
20260505051555 72 153 1.0 5.0 0.00 0.00 0.00 88 1010.9
20260505040100 72 165 1.0 6.0 0.00 0.00 0.00 86 1011.1
20260505040001 73 167 1.0 4.0 0.00 0.00 0.00 86 1011.1
20260505034503 73 113 0.0 7.0 0.00 0.00 0.00 86 1011.1
20260505033059 73 175 1.0 6.0 0.00 0.00 0.00 86 1011.2
20260505031611 73 165 2.0 6.0 0.00 0.00 0.00 85 1011.3
20260505030100 73 127 3.0 7.0 0.00 0.00 0.00 84 1011.2
20260505024601 74 159 1.0 6.0 0.00 0.00 0.00 84 1011.1
20260505023121 74 107 2.0 6.0 0.00 0.00 0.00 84 1011.2
20260505021600 74 173 2.0 5.0 0.00 0.00 0.00 83 1011.0
20260505020059 75 178 2.0 7.0 0.00 0.00 0.00 82 1010.9
20260505020003 75 93 2.0 7.0 0.00 0.00 0.00 82 1010.9
20260505014608 75 139 1.0 5.0 0.00 0.00 0.00 81 1010.9
20260505013110 75 145 1.0 6.0 0.00 0.00 0.00 80 1010.5
20260505011600 76 150 2.0 6.0 0.00 0.00 0.00 80 1010.6
20260505011501 76 108 2.0 6.0 0.00 0.00 0.00 79 1010.6
20260505010003 76 177 2.0 5.0 0.00 0.00 0.00 79 1010.6
20260505004600 77 150 1.0 5.0 0.00 0.00 0.00 78 1010.7
20260505003100 77 161 4.0 11.0 0.00 0.00 0.00 77 1010.5
20260505001606 78 121 3.0 10.0 0.00 0.00 0.00 76 1010.3
20260505000116 78 144 2.0 9.0 0.00 0.00 0.00 76 1010.4
20260505000007 78 179 2.0 9.0 0.00 0.00 0.00 76 1010.4
20260504234559 79 72 0.0 4.0 0.00 0.00 0.00 77 1010.5
20260504233102 78 184 3.0 9.0 0.00 0.00 0.00 74 1010.6
20260504231559 78 200 2.0 7.0 0.00 0.00 0.00 75 1010.8
20260504230108 79 96 2.0 7.0 0.00 0.00 0.00 74 1011.0
20260504230002 79 101 2.0 7.0 0.00 0.00 0.00 74 1011.0
20260504224559 79 173 3.0 8.0 0.00 0.00 0.00 74 1011.1
20260504223105 79 211 4.0 9.0 0.00 0.00 0.00 73 1011.1
20260504221606 80 185 2.0 9.0 0.00 0.00 0.00 74 1011.2
20260504220103 79 236 3.0 10.0 0.00 0.00 0.00 74 1011.5
20260504220002 79 180 2.0 10.0 0.00 0.00 0.00 74 1011.5
20260504214601 79 130 4.0 9.0 0.00 0.00 0.00 73 1011.7
20260504213105 80 183 3.0 12.0 0.00 0.00 0.00 72 1011.7
20260504211609 80 198 3.0 10.0 0.00 0.00 0.00 71 1012.0
20260504210059 81 148 2.0 11.0 0.00 0.00 0.00 69 1012.0
20260504204603 81 131 4.0 8.0 0.00 0.00 0.00 69 1012.3
20260504203110 81 178 3.0 8.0 0.00 0.00 0.00 69 1012.2
20260504201601 81 117 4.0 10.0 0.00 0.00 0.00 70 1012.7
20260504200059 81 184 3.0 7.0 0.00 0.00 0.00 68 1013.0
20260504194559 80 165 3.0 9.0 0.00 0.00 0.00 69 1013.2
20260504193100 81 327.0 255.0 0.00 0.00 0.00 69 1013.4
20260504193003 81 327.0 255.0 0.00 0.00 0.00 69 1013.4
20260504191610 81 174 3.0 8.0 0.00 0.00 0.00 69 1013.6
20260504190121 81 175 4.0 8.0 0.00 0.00 0.00 69 1013.6
20260504190002 81 216 4.0 8.0 0.00 0.00 0.00 70 1013.7
20260504184605 80 209 4.0 14.0 0.00 0.00 0.00 69 1014.0
20260504183107 80 167 3.0 9.0 0.00 0.00 0.00 69 1014.1
20260504181601 80 120 2.0 10.0 0.00 0.00 0.00 69 1014.2
20260504180117 80 207 5.0 11.0 0.00 0.00 0.00 69 1014.1
20260504174600 80 192 3.0 12.0 0.00 0.00 0.00 69 1014.7
20260504173100 79 173 3.0 10.0 0.00 0.00 0.00 69 1014.7
20260504171600 79 196 2.0 10.0 0.00 0.00 0.00 73 1015.0
20260504160107 76 169 3.0 9.0 0.00 0.00 0.00 72 1016.0